Meteo Giornale » Osservazioni meteo Stati Uniti (USA) » Provincetown

ore: 13:56 - Osservazioni Meteo Provincetown
Lat. 42° 4' N Lon. 70° 13' W Alt. 2 metri s.l.m.

sereno

21 °C

Sereno

Temp. 24 Ore

18 °C

26 °C

Nord

11.1 Km/h

Dew point 14 °C

Umidità 64 %

Visibilità  10 Km

Il sole sorge alle ore 06:05

Il sole tramonta alle ore 19:16

Data e Ora Cielo e Fenomeni T °C DP °C Um. % Pres. hPa Vis. km Vento km/h
Oggi h: 13:56 sereno Sereno 21 14 64 1020 10 N 11.1
Oggi h: 12:56 sereno Sereno 22 13 56 1020 10 N/NE 11.1
Oggi h: 11:56 sereno Sereno 21 14 64 1021 10 N 11.1
Oggi h: 10:56 sereno Sereno 21 14 64 1021 10 NE 13
Oggi h: 09:56 sereno Sereno 21 15 68 1021 10 NE 13
Oggi h: 08:56 sereno Sereno 21 14 64 1020 10 NE 14.8
Oggi h: 07:56 poco_nuvoloso Poco Nuvoloso 19 15 77 1020 10 N/NE 16.7
Oggi h: 07:46 poco_nuvoloso Poco Nuvoloso 19 15 77 1020 10 N/NE 18.5
Oggi h: 06:56 sereno Sereno 18 14 77 1019 10 N/NE 18.5
Oggi h: 05:56 sereno Sereno 18 14 77 1019 10 N/NE 18.5
Oggi h: 04:56 sereno Sereno 18 16 88 1018 10 N/NE 11.1
Oggi h: 03:56 sereno Sereno 19 17 88 1018 10 N/NE 11.1
Oggi h: 02:56 sereno Sereno 18 17 93 1017 10 E/NE 7.4
Oggi h: 01:56 coperto Coperto 20 19 93 1017 10 O 13
Oggi h: 00:56 coperto_pioggia Pioggia 20 19 93 1017 10 O/SO 18.5
Ieri h: 23:56 coperto_pioggia Pioggia 21 20 94 1017 10 O/SO 20.3
Ieri h: 22:56 coperto Coperto 21 20 94 1017 10 O/SO 22.2
Ieri h: 21:56 coperto_pioggia Pioggia 21 20 94 1017 10 SO 22.2
Ieri h: 20:56 nuvoloso Nuvoloso 22 19 83 1017 10 SO 24
Ieri h: 19:56 coperto Coperto 22 19 83 1016 10 SO 27.8
Ieri h: 18:56 coperto Coperto 22 18 78 1016 10 S/SO 24
Ieri h: 17:56 molto_nuvoloso Molto Nuvoloso 23 18 73 1017 10 SO 24
Ieri h: 16:56 sereno Sereno 24 19 73 1017 10 S/SO 18.5
Ieri h: 15:56 sereno Sereno 25 19 69 1017 10 S/SO 18.5
Ieri h: 14:56 sereno Sereno 26 17 57 1018 10 S/SO 14.8